• In Lithuania
  • List of Countries
  • For 7 days
  • Water Temperature
  • Satellite Maps
  • Weather Map
  • Weather Widgets
  • user-avatar
    Login

    Hourly Weather Silistra

    Today, 18 November, Saturday

    Time Temperature Precipitation Wind Pressure Humidity
    00:00 +9°C° 0.4 mm 3 mps 760 mmHg 86%
    01:00 +9°C° 0.4 mm 3 mps 759 mmHg 87%
    02:00 +8°C° 0 mm 2 mps 759 mmHg 85%
    03:00 +8°C° 0.8 mm 3 mps 759 mmHg 86%
    04:00 +8°C° 0.8 mm 3 mps 759 mmHg 87%
    05:00 +8°C° 0.8 mm 3 mps 758 mmHg 88%
    06:00 +8°C° 1.2 mm 3 mps 758 mmHg 89%
    07:00 +8°C° 1.2 mm 3 mps 758 mmHg 90%
    08:00 +8°C° 1.2 mm 3 mps 758 mmHg 92%
    09:00 +8°C° 1.5 mm 3 mps 758 mmHg 92%
    10:00 +8°C° 1.5 mm 3 mps 758 mmHg 92%
    11:00 +8°C° 1.5 mm 3 mps 757 mmHg 92%
    12:00 +8°C° 1.8 mm 3 mps 757 mmHg 92%
    13:00 +8°C° 1.8 mm 3 mps 757 mmHg 92%
    14:00 +8°C° 1.8 mm 3 mps 756 mmHg 92%
    15:00 +8°C° 1 mm 3 mps 756 mmHg 93%
    16:00 +8°C° 1 mm 3 mps 756 mmHg 93%
    17:00 +8°C° 1 mm 3 mps 756 mmHg 93%
    18:00 +8°C° 0.2 mm 2 mps 756 mmHg 93%
    19:00 +8°C° 0.2 mm 2 mps 756 mmHg 93%
    20:00 +8°C° 0.2 mm 2 mps 756 mmHg 93%
    21:00 +8°C° 0 mm 2 mps 756 mmHg 93%
    22:00 +8°C° 0 mm 2 mps 755 mmHg 93%
    23:00 +8°C° 0 mm 2 mps 755 mmHg 92%

    Tomorrow, 19 November, Sunday

    Time Temperature Precipitation Wind Pressure Humidity
    00:00 +8°C° 0 mm 2 mps 755 mmHg 92%
    01:00 +8°C° 0 mm 3 mps 755 mmHg 91%
    02:00 +8°C° 0 mm 3 mps 755 mmHg 91%
    03:00 +8°C° 0 mm 3 mps 755 mmHg 91%
    04:00 +8°C° 0 mm 3 mps 754 mmHg 92%
    05:00 +7°C° 0 mm 3 mps 754 mmHg 92%
    06:00 +7°C° 0 mm 3 mps 754 mmHg 92%
    07:00 +7°C° 0 mm 3 mps 754 mmHg 92%
    08:00 +6°C° 0 mm 4 mps 754 mmHg 92%
    09:00 +7°C° 0 mm 4 mps 754 mmHg 86%
    10:00 +8°C° 0 mm 5 mps 754 mmHg 81%
    11:00 +9°C° 0 mm 5 mps 754 mmHg 75%
    12:00 +9°C° 0.1 mm 5 mps 754 mmHg 73%
    13:00 +10°C° 0.1 mm 5 mps 753 mmHg 70%
    14:00 +11°C° 0.1 mm 4 mps 753 mmHg 68%
    15:00 +10°C° 0.1 mm 4 mps 753 mmHg 69%
    16:00 +10°C° 0.1 mm 3 mps 753 mmHg 71%
    17:00 +9°C° 0.1 mm 2 mps 753 mmHg 73%
    18:00 +9°C° 0 mm 2 mps 753 mmHg 74%
    19:00 +9°C° 0 mm 2 mps 753 mmHg 74%
    20:00 +9°C° 0 mm 1 mps 753 mmHg 75%
    21:00 +8°C° 0 mm 2 mps 753 mmHg 74%
    22:00 +8°C° 0 mm 2 mps 753 mmHg 73%
    23:00 +8°C° 0 mm 2 mps 753 mmHg 72%

    Day after tomorrow, 20 November, Monday

    Time Temperature Precipitation Wind Pressure Humidity
    00:00 +8°C° 0 mm 3 mps 753 mmHg 70%
    01:00 +8°C° 0 mm 3 mps 753 mmHg 69%
    02:00 +8°C° 0 mm 3 mps 753 mmHg 67%
    03:00 +7°C° 0 mm 3 mps 753 mmHg 68%
    04:00 +7°C° 0 mm 3 mps 753 mmHg 69%
    05:00 +7°C° 0 mm 3 mps 753 mmHg 71%
    06:00 +7°C° 0.1 mm 3 mps 754 mmHg 72%
    07:00 +5°C° 0.1 mm 3 mps 754 mmHg 72%
    08:00 +5°C° 0.1 mm 3 mps 755 mmHg 73%
    09:00 +7°C° 0.1 mm 3 mps 755 mmHg 69%
    10:00 +6°C° 0.1 mm 4 mps 755 mmHg 65%
    11:00 +7°C° 0.1 mm 4 mps 755 mmHg 62%
    12:00 +7°C° 0 mm 4 mps 755 mmHg 59%
    13:00 +8°C° 0 mm 4 mps 755 mmHg 57%
    14:00 +8°C° 0 mm 4 mps 755 mmHg 54%
    15:00 +7°C° 0 mm 4 mps 755 mmHg 58%
    16:00 +8°C° 0 mm 3 mps 755 mmHg 62%
    17:00 +7°C° 0 mm 3 mps 756 mmHg 66%
    18:00 +7°C° 0 mm 3 mps 756 mmHg 67%
    19:00 +6°C° 0 mm 2 mps 756 mmHg 68%
    20:00 +6°C° 0 mm 2 mps 757 mmHg 70%
    21:00 +5°C° 0 mm 2 mps 757 mmHg 69%
    22:00 +4°C° 0 mm 3 mps 757 mmHg 68%
    23:00 +4°C° 0 mm 3 mps 758 mmHg 67%

    21 November, Tuesday

    Time Temperature Precipitation Wind Pressure Humidity
    00:00 +3°C° 0 mm 3 mps 758 mmHg 69%
    01:00 +3°C° 0 mm 3 mps 758 mmHg 70%
    02:00 +3°C° 0 mm 3 mps 758 mmHg 72%
    03:00 +2°C° 0 mm 3 mps 758 mmHg 73%
    04:00 +2°C° 0 mm 3 mps 758 mmHg 75%
    05:00 +2°C° 0 mm 3 mps 758 mmHg 77%
    06:00 +2°C° 0 mm 3 mps 759 mmHg 77%
    07:00 +1°C° 0 mm 4 mps 759 mmHg 78%
    08:00 +1°C° 0 mm 4 mps 759 mmHg 78%
    09:00 +3°C° 0 mm 4 mps 759 mmHg 71%
    10:00 +3°C° 0 mm 5 mps 759 mmHg 64%
    11:00 +6°C° 0 mm 5 mps 758 mmHg 57%
    12:00 +6°C° 0 mm 5 mps 758 mmHg 54%
    13:00 +7°C° 0 mm 6 mps 757 mmHg 50%
    14:00 +8°C° 0 mm 6 mps 756 mmHg 46%
    15:00 +8°C° 0 mm 5 mps 756 mmHg 49%
    16:00 +7°C° 0 mm 4 mps 756 mmHg 51%
    17:00 +8°C° 0 mm 3 mps 756 mmHg 54%
    18:00 +8°C° 0 mm 3 mps 755 mmHg 55%
    19:00 +7°C° 0 mm 4 mps 755 mmHg 56%
    20:00 +7°C° 0 mm 4 mps 755 mmHg 58%
    21:00 +7°C° 0 mm 4 mps 755 mmHg 60%
    22:00 +6°C° 0 mm 4 mps 755 mmHg 61%
    23:00 +6°C° 0 mm 4 mps 755 mmHg 63%

    22 November, Wednesday

    Time Temperature Precipitation Wind Pressure Humidity
    00:00 +6°C° 0 mm 4 mps 755 mmHg 65%
    01:00 +6°C° 0 mm 4 mps 755 mmHg 67%
    02:00 +6°C° 0 mm 4 mps 755 mmHg 69%
    03:00 +7°C° 0.1 mm 3 mps 755 mmHg 72%
    04:00 +7°C° 0.1 mm 3 mps 756 mmHg 75%
    05:00 +7°C° 0.1 mm 3 mps 756 mmHg 79%
    06:00 +5°C° 0.1 mm 3 mps 757 mmHg 79%
    07:00 +5°C° 0.1 mm 3 mps 757 mmHg 79%
    08:00 +5°C° 0.1 mm 4 mps 758 mmHg 79%
    09:00 +5°C° 0.1 mm 4 mps 759 mmHg 74%
    10:00 +6°C° 0.1 mm 4 mps 759 mmHg 70%
    11:00 +6°C° 0.1 mm 4 mps 760 mmHg 65%
    12:00 +6°C° 0 mm 4 mps 760 mmHg 61%
    13:00 +8°C° 0 mm 3 mps 760 mmHg 56%
    14:00 +8°C° 0 mm 3 mps 761 mmHg 52%
    15:00 +8°C° 0 mm 3 mps 761 mmHg 53%
    16:00 +7°C° 0 mm 2 mps 762 mmHg 54%
    17:00 +8°C° 0 mm 1 mps 762 mmHg 55%
    18:00 +7°C° 0 mm 1 mps 763 mmHg 57%
    19:00 +7°C° 0 mm 1 mps 763 mmHg 58%
    20:00 +6°C° 0 mm 1 mps 764 mmHg 59%
    21:00 +6°C° 0 mm 1 mps 764 mmHg 60%
    22:00 +5°C° 0 mm 1 mps 764 mmHg 61%
    23:00 +5°C° 0 mm 1 mps 764 mmHg 61%

    23 November, Thursday

    Time Temperature Precipitation Wind Pressure Humidity
    00:00 +5°C° 0 mm 1 mps 764 mmHg 62%
    01:00 +5°C° 0 mm 1 mps 764 mmHg 62%
    02:00 +5°C° 0 mm 1 mps 764 mmHg 63%
    03:00 +5°C° 0 mm 1 mps 764 mmHg 63%
    04:00 +4°C° 0 mm 2 mps 764 mmHg 64%
    05:00 +4°C° 0 mm 2 mps 764 mmHg 64%
    06:00 +4°C° 0 mm 2 mps 764 mmHg 66%
    07:00 +4°C° 0 mm 2 mps 765 mmHg 67%
    08:00 +4°C° 0 mm 2 mps 765 mmHg 69%
    09:00 +5°C° 0 mm 2 mps 765 mmHg 65%
    10:00 +7°C° 0 mm 2 mps 765 mmHg 61%
    11:00 +9°C° 0 mm 2 mps 765 mmHg 57%
    12:00 +10°C° 0 mm 2 mps 765 mmHg 57%
    13:00 +10°C° 0 mm 2 mps 765 mmHg 56%
    14:00 +12°C° 0 mm 2 mps 764 mmHg 56%
    15:00 +11°C° 0 mm 1 mps 764 mmHg 60%
    16:00 +11°C° 0 mm 1 mps 764 mmHg 65%
    17:00 +10°C° 0 mm 1 mps 764 mmHg 69%
    18:00 +9°C° 0 mm 1 mps 765 mmHg 71%
    19:00 +8°C° 0 mm 2 mps 765 mmHg 74%
    20:00 +7°C° 0 mm 2 mps 765 mmHg 77%
    21:00 +7°C° 0 mm 2 mps 765 mmHg 79%
    22:00 +7°C° 0 mm 2 mps 765 mmHg 81%
    23:00 +7°C° 0 mm 2 mps 765 mmHg 83%
    Show more